Regional Weather Roundup
Issued by NWS

Home | Current Version | Previous Version | Graphics & Text | Print | Product List | Glossary Off
Versions: 1 2 3 4 5 6 7 8 9 10 11 12 13 14 15 16 17 18 19 20 21 22 23 24 25 26 27 28 29 30 31 32 33 34 35 36 37 38 39 40 41 42 43 44 45 46 47 48 49 50

000
ASUS45 KCYS 100910
RWRWY

WYOMING REGIONAL WEATHER ROUNDUP
NATIONAL WEATHER SERVICE CHEYENNE WY
200 AM MST WED FEB 10 2016

NOTE:  "FAIR" INDICATES FEW OR NO CLOUDS BELOW 12,000 FEET
WITH NO SIGNIFICANT WEATHER AND/OR OBSTRUCTIONS TO VISIBILITY.

WYZ001-101000-
YELLOWSTONE NATIONAL PARK

CITY           SKY/WX    TMP DP  RH WIND       PRES   REMARKS
LK YELLOWSTONE   N/A      7   4  87 CALM      30.41F
W YELLOWSTONE  NOT AVBL

$$
WYZ002>013-054>058-071-098>099-101000-
NORTHERN WYOMING

CITY           SKY/WX    TMP DP  RH WIND       PRES   REMARKS
JACKSON        FAIR       3   3 100 N10       30.44S WCI -12
CODY           FAIR      55  12  18 W17       30.14S
GREYBULL       FAIR      22  20  92 CALM      30.17F
WORLAND        FAIR      24  21  88 S8        30.18F WCI  15
SHERIDAN       FAIR      33  20  58 CALM      30.01F
BUFFALO        FAIR      50  14  23 W13       30.05F
GILLETTE       FAIR      43  21  41 SW14      30.01F
HULETT         FAIR      41  27  56 SW14      30.00F
NEWCASTLE      FAIR      30  23  74 CALM      30.04F

$$
WYZ014>020-022>026-101>103-101000-
CENTRAL WYOMING

CITY           SKY/WX    TMP DP  RH WIND       PRES   REMARKS
BIG PINEY      FAIR      13  10  88 CALM      30.39F
PINEDALE       FAIR      14  12  92 W8        30.40F WCI   3
DUBOIS         FAIR      30  12  47 NW20      30.31F WCI  18
LANDER         FAIR      23  16  74 S5        30.24F WCI  17
RIVERTON       FAIR      21  16  81 NW3       30.25F
CASPER         FAIR      35  22  58 SW26G39   30.18S WCI  22
DOUGLAS        FAIR      34  24  67 CALM        N/A

$$
WYZ021-027>030-104>119-101000-
SOUTHERN WYOMING

CITY           SKY/WX    TMP DP  RH WIND       PRES   REMARKS
EVANSTON       FAIR      28  18  66 S6        30.41F WCI  22
FORT BRIDGER   SUNNY     34  12  40 W14       30.41F WCI  24
ROCK SPRINGS   FAIR      29  19  66 W13       30.38R WCI  19
DIXON          FAIR      13   9  85 E6        30.45S WCI   4
RAWLINS        FAIR      32  17  54 W7        30.35F WCI  26
SARATOGA       FAIR      23  12  63 S5        30.37S WCI  17
LARAMIE        FAIR      31  12  45 SW5       30.27S WCI  26
CHEYENNE       FAIR      40  15  36 W20       30.16F WCI  30
TORRINGTON     FAIR      34  23  64 W8        30.09F WCI  27
PINE BLUFFS    FAIR      30  21  69 W7        30.15S WCI  23

$$



USA.gov is the U.S. government's official web portal to all federal, state and local government web resources and services.